This is the latest recevied weather packets stored in our database for station/object KF0ZH. If no packets are shown the sender has not sent any weather packets the latest 10 day(s).
| Time | Temp. | Humidity | Pressure | Rain* | Wind** | Luminosity | Snow |
|---|---|---|---|---|---|---|---|
| 1777734423 | 12.22° C | 55% | 1017.7 hPa | 0 mm | 1.79 m/s, 215° | - | - |
| 1777734121 | 12.22° C | 57% | 1017.7 hPa | 0 mm | 0 m/s | - | - |
| 1777733822 | 11.67° C | 58% | 1017.8 hPa | 0 mm | 0 m/s | - | - |
| 1777733223 | 11.11° C | 60% | 1017.8 hPa | 0 mm | 0 m/s | - | - |
| 1777732921 | 11.11° C | 60% | 1017.8 hPa | 0 mm | 0 m/s | - | - |
| 1777732621 | 10.56° C | 62% | 1017.9 hPa | 0 mm | 1.79 m/s, 275° | - | - |
| 1777732321 | 10.56° C | 61% | 1018 hPa | 0 mm | 1.34 m/s, 279° | - | - |
| 1777732023 | 10.56° C | 63% | 1018 hPa | 0 mm | 0 m/s | - | - |
| 1777731732 | 10° C | 65% | 1018.1 hPa | 0 mm | 0 m/s | - | - |
| 1777731423 | 10° C | 65% | 1018 hPa | 0 mm | 0 m/s | - | - |
| 1777731122 | 9.44° C | 66% | 1018.1 hPa | 0 mm | 0 m/s | - | - |
| 1777730522 | 8.89° C | 68% | 1018.2 hPa | 0 mm | 2.68 m/s, 240° | - | - |
| 1777730222 | 8.33° C | 69% | 1018.3 hPa | 0 mm | 0 m/s | - | - |
| 1777729321 | 7.78° C | 70% | 1018.3 hPa | 0 mm | 0 m/s | - | - |
| 1777729022 | 7.78° C | 72% | 1018.3 hPa | 0 mm | 0 m/s | - | - |
| 1777728723 | 7.22° C | 73% | 1018.3 hPa | 0 mm | 0 m/s | - | - |
| 1777728422 | 7.22° C | 73% | 1018.5 hPa | 0 mm | 1.34 m/s, 260° | - | - |
| 1777727822 | 6.67° C | 75% | 1018.5 hPa | 0 mm | 0 m/s | - | - |
| 1777727522 | 6.67° C | 74% | 1018.5 hPa | 0 mm | 0 m/s | - | - |
| 1777727221 | 6.11° C | 75% | 1018.5 hPa | 0 mm | 1.79 m/s, 262° | - | - |
| 1777726621 | 5.56° C | 77% | 1018.5 hPa | 0 mm | 0 m/s | - | - |
| 1777726102 | 5.56° C | 77% | 1018.5 hPa | 0 mm | 1.34 m/s, 209° | - | - |
| 1777726021 | 5.56° C | 77% | 1018.5 hPa | 0 mm | 1.34 m/s, 209° | - | - |
| 1777725723 | 5° C | 78% | 1018.6 hPa | 0 mm | 0 m/s | - | - |
| 1777724821 | 4.44° C | 78% | 1018.5 hPa | 0 mm | 0 m/s | - | - |
* Rain latest hour (hover to see other rain measurements)
** Current wind speed in m/s (hover to see current wind gust speed)